Regional Weather Roundup
Issued by NWS

Home | Current Version | Previous Version | Graphics & Text | Print | Product List | Glossary Off
Versions: 1 2 3 4 5 6 7 8 9 10 11 12 13 14 15 16 17 18 19 20 21 22 23 24 25 26 27 28 29 30 31 32 33 34 35 36 37 38 39 40 41 42 43 44 45 46 47 48 49 50

000
ASUS43 KDMX 220806
RWRIA

WEATHER ROUNDUP FOR IOWA
NATIONAL WEATHER SERVICE DES MOINES IA
300 AM CDT SUN APR 22 2018

NOTE: "FAIR" INDICATES FEW OR NO CLOUDS BELOW 12,000 FEET WITH NO
SIGNIFICANT WEATHER AND/OR OBSTRUCTIONS TO VISIBILITY.

* - THESE STATIONS ARE NOT NWS STATIONS...THUS NOT UNDER NWS
QUALITY CONTROL.  THEY ALSO DO NOT REPORT WEATHER SUCH
AS PRECIPITATION OR FOG.

IAZ001>003-012>014-020>022-031>034-043>046-220900-
   NORTHWEST IOWA

CITY           SKY/WX    TMP DP  RH WIND       PRES   REMARKS
CARROLL *      PTCLDY    41  34  75 CALM      30.25F
CHEROKEE *     CLOUDY    39  38  93 CALM      30.28F
DENISON *      PTCLDY    43  32  65 SE5       30.25F
LE MARS *      CLOUDY    43  36  75 NE3       30.26F
ORANGE CITY *  CLOUDY    45  39  81 E6        30.27F
SHELDON *      CLOUDY    41  39  93 E5        30.26F
SIOUX CITY     CLOUDY    40  32  73 E3        30.26F
SPENCER        CLOUDY    38  33  82 E6        30.29F WCI  33
STORM LAKE *   CLOUDY    39  36  87 E7        30.27S WCI  34
$$

IAZ055>058-069>071-079>083-090>094-220900-
   SOUTHWEST IOWA

CITY           SKY/WX    TMP DP  RH WIND       PRES   REMARKS
ATLANTIC *     CLOUDY    48  32  53 E10       30.23S
AUDUBON *      PTCLDY    43  32  65 CALM      30.24F
CLARINDA *     CLOUDY    50  30  46 NE6       30.22S
COUNCIL BLFS * CLOUDY    46  32  57 E8        30.21S
CRESTON *      CLOUDY    46  32  57 NE16      30.22F
HARLAN  *      CLOUDY    46  32  57 E10       30.26S
LAMONI         CLOUDY    48  31  51 NE10      30.20S
RED OAK *      CLOUDY    50  32  50 E13       30.21S
SHENANDOAH *   CLOUDY    48  32  53 NE8       30.20S
$$

IAZ047>049-059>061-072>074-084-220900-
   CENTRAL IOWA

CITY           SKY/WX    TMP DP  RH WIND       PRES   REMARKS
AMES           PTCLDY    44  33  65 E3        30.27F
ANKENY *       MOCLDY    46  32  57 E7        30.27F
BOONE *        CLOUDY    41  36  81 E8        30.25F
CHARITON *     CLOUDY    46  32  57 E9        30.23R
DES MOINES     CLOUDY    49  33  54 E9        30.26F
GRINNELL*      CLOUDY    40  33  75 E8        30.28S WCI  35
KNOXVILLE *    CLOUDY    46  32  57 E12G17    30.24R
MARSHALLTOWN   CLOUDY    42  36  79 E8        30.27S
NEWTON *       PTCLDY    45  32  61 E13       30.26F
PELLA *        PTCLDY    47  32  56 E6G16     30.27S
PERRY *        FAIR      43  30  58 E10       30.25F
$$

IAZ004>006-015-016-023>025-035-036-220900-
   NORTH CENTRAL IOWA

CITY           SKY/WX    TMP DP  RH WIND       PRES   REMARKS
ALGONA *       CLOUDY    41  36  81 E5        30.29F
CLARION *      CLOUDY    45  37  76 E9        30.28F
ESTHERVILLE    CLOUDY    34  31  88 CALM      30.29F
FORT DODGE *   CLOUDY    44  36  73 NE7       30.29R
MASON CITY     CLOUDY    37  34  89 NE5       30.31F WCI  33
FOREST CITY *  CLOUDY    43  34  70 E5        30.30F
WEBSTER CITY * CLOUDY    43  36  75 E7        30.26S
IOWA FALLS *   FAIR      44  37  74 E5        30.29F
$$

IAZ007>011-017>019-026>030-037>042-050>054-066-220900-
   NORTHEAST IOWA

CITY           SKY/WX    TMP DP  RH WIND       PRES   REMARKS
CEDAR RAPIDS   FAIR      44  34  67 E9        30.27F
CHARLES CITY * CLOUDY    45  36  70 E5        30.31F
CLINTON *      FAIR      44  28  53 E8        30.31S
DECORAH *      CLOUDY    39  34  81 CALM      30.31F
DUBUQUE        CLOUDY    45  28  51 CALM      30.32R
MONTICELLO *   FAIR      48  32  53 E5        30.30F
OELWEIN *      CLOUDY    43  37  81 NE7       30.31S
WATERLOO       FAIR      41  36  82 E7        30.29F
$$

IAZ064-065-067-068-078-220900-
   EAST CENTRAL IOWA

CITY           SKY/WX    TMP DP  RH WIND       PRES   REMARKS
DAVENPORT      FAIR      45  27  49 E9        30.31F
IOWA CITY      FAIR      49  31  49 E9        30.30S
MT. PLEASANT * CLOUDY    45  30  57 NE9       30.25F
MUSCATINE *    FAIR      50  25  37 E8        30.29R
QUAD CITIES    FAIR      47  26  44 E7        30.29R
$$

IAZ062-063-075>077-085>089-095>099-220900-
   SOUTHEAST IOWA

CITY           SKY/WX    TMP DP  RH WIND       PRES   REMARKS
BURLINGTON     CLOUDY    49  29  46 NE9       30.25S
FAIRFIELD *    CLOUDY    46  30  53 NE13      30.24F
FORT MADISON * CLOUDY    48  32  53 NE10      30.25F
KEOKUK *       CLOUDY    50  32  50 E13       30.22F
OSKALOOSA *    FAIR      45  33  61 NE10      30.26S
CENTERVILLE *    N/A     48  32  53 NE9       30.23S
OTTUMWA        MOCLDY    45  32  60 NE10      30.25S
WASHINGTON *   CLOUDY    43  32  65 E8        30.28F
$$

ABBREVIATIONS USED IN REMARKS
   TC - TEMPERATURES IN CELSIUS
  WCI - WIND CHILL INDEX
   HX - HEAT INDEX
  VSB - VISIBILITY
$$





USA.gov is the U.S. government's official web portal to all federal, state and local government web resources and services.